Plot Title: Harvard GSD,,,
#,Date Time,Wind Speed (m/s),Gust Speed (m/s)
1,7/10/2009 9:10,0.9,2.4
2,7/10/2009 9:15,1.7,2.6
3,7/10/2009 9:20,1.3,2.4
4,7/10/2009 9:25,0.7,1.7
5,7/10/2009 9:30,0.9,2.2
6,7/10/2009 9:35,1.1,2.4
7,7/10/2009 9:40,1.3,2.6
8,7/10/2009 9:45,0.9,1.9
9,7/10/2009 9:50,0.9,1.7
10,7/10/2009 9:55,1.1,2.8
11,7/10/2009 10:00,0.9,2.8
12,7/10/2009 10:05,0.7,3
13,7/10/2009 10:10,1.3,3
14,7/10/2009 10:15,1.3,2.8
15,7/10/2009 10:20,1.7,3.2
16,7/10/2009 10:25,1.9,3.2
17,7/10/2009 10:30,2,3.2
18,7/10/2009 10:35,1.5,2.8
19,7/10/2009 10:40,1.3,2.6
20,7/10/2009 10:45,1.9,3.5
21,7/10/2009 10:50,2,3.3
22,7/10/2009 10:55,1.5,3.3
23,7/10/2009 11:00,1.1,3.2
24,7/10/2009 11:05,1.9,3.2
25,7/10/2009 11:10,1.3,3
26,7/10/2009 11:15,1.5,3
27,7/10/2009 11:20,1.9,4.1
28,7/10/2009 11:25,2,3.5
29,7/10/2009 11:30,2,3.7
30,7/10/2009 11:35,2.2,3.7
31,7/10/2009 11:40,2,3.7
32,7/10/2009 11:45,2.2,3.9
33,7/10/2009 11:50,3,4.3
34,7/10/2009 11:55,2.2,3.5
35,7/10/2009 12:00,2.4,4.8
36,7/10/2009 12:05,3,4.5
37,7/10/2009 12:10,3,5.2
38,7/10/2009 12:15,3,4.5
39,7/10/2009 12:20,2.2,4.5
40,7/10/2009 12:25,1.9,4.1
41,7/10/2009 12:30,1.9,3.7
42,7/10/2009 12:35,1.5,3.2
43,7/10/2009 12:40,1.9,3.7
44,7/10/2009 12:45,1.9,4.3
45,7/10/2009 12:50,2.4,3.7
46,7/10/2009 12:55,2.2,4.1
47,7/10/2009 13:00,1.5,3.9
48,7/10/2009 13:05,1.9,4.3
49,7/10/2009 13:10,2.2,4.3
50,7/10/2009 13:15,2,4.1
51,7/10/2009 13:20,2.4,4.5
52,7/10/2009 13:25,2,4.6
53,7/10/2009 13:30,3.2,4.5
54,7/10/2009 13:35,1.7,2.8
55,7/10/2009 13:40,1.5,3.9
56,7/10/2009 13:45,2,4.5
57,7/10/2009 13:50,2,4.5
58,7/10/2009 13:55,1.5,3.7
59,7/10/2009 14:00,2.4,4.6
60,7/10/2009 14:05,2.6,4.3
61,7/10/2009 14:10,1.9,3.7
62,7/10/2009 14:15,1.1,3.9
63,7/10/2009 14:20,1.5,3.9
64,7/10/2009 14:25,1.5,3
65,7/10/2009 14:30,1.5,3
66,7/10/2009 14:35,2.2,5.6
67,7/10/2009 14:40,3.5,6.3
68,7/10/2009 14:45,3.3,6.5
69,7/10/2009 14:50,3.2,5.8
70,7/10/2009 14:55,3.2,5.6
71,7/10/2009 15:00,2.2,4.8
72,7/10/2009 15:05,2.8,4.8
73,7/10/2009 15:10,3,3.9
74,7/10/2009 15:15,3,4.5
75,7/10/2009 15:20,2.6,4.5
76,7/10/2009 15:25,2,3.7
77,7/10/2009 15:30,1.7,3.5
78,7/10/2009 15:35,2,3.7
79,7/10/2009 15:40,1.9,3
80,7/10/2009 15:45,1.5,3.3
81,7/10/2009 15:50,2.4,4.3
82,7/10/2009 15:55,1.7,3.2
83,7/10/2009 16:00,1.5,3
84,7/10/2009 16:05,1.3,3
85,7/10/2009 16:10,2.6,4.1
86,7/10/2009 16:15,1.9,3.5
87,7/10/2009 16:20,2,3.5
88,7/10/2009 16:25,2.6,4.3
89,7/10/2009 16:30,2.6,4.1
90,7/10/2009 16:35,2.8,4.6
91,7/10/2009 16:40,3,4.3
92,7/10/2009 16:45,2.4,4.5
93,7/10/2009 16:50,3,4.3
94,7/10/2009 16:55,2.8,4.3
95,7/10/2009 17:00,2.4,4.1
96,7/10/2009 17:05,3,4.5
97,7/10/2009 17:10,2.2,3.9
98,7/10/2009 17:15,2,4.3
99,7/10/2009 17:20,2.2,3.9
100,7/10/2009 17:25,2.4,3.9
101,7/10/2009 17:30,2,3.7
102,7/10/2009 17:35,2.2,3.3
103,7/10/2009 17:40,1.9,3.3
104,7/10/2009 17:45,1.9,3
105,7/10/2009 17:50,1.3,2.2
106,7/10/2009 17:55,1.7,2.8
107,7/10/2009 18:00,1.7,3.2
108,7/10/2009 18:05,1.3,3
109,7/10/2009 18:10,2,3.5
110,7/10/2009 18:15,2.2,3.7
111,7/10/2009 18:20,2,3.5
112,7/10/2009 18:25,2,3.3
113,7/10/2009 18:30,1.9,3.5
114,7/10/2009 18:35,2.4,3.7
115,7/10/2009 18:40,2,3.3
116,7/10/2009 18:45,2,3.5
117,7/10/2009 18:50,1.9,3.3
118,7/10/2009 18:55,1.7,3.7
119,7/10/2009 19:00,1.9,3.5
120,7/10/2009 19:05,1.3,2.8
121,7/10/2009 19:10,2,3.9
122,7/10/2009 19:15,2.4,3.3
123,7/10/2009 19:20,2.2,3.5
124,7/10/2009 19:25,1.3,3
125,7/10/2009 19:30,1.9,3.2
126,7/10/2009 19:35,1.9,3
127,7/10/2009 19:40,1.9,2.8
128,7/10/2009 19:45,1.5,2.8
129,7/10/2009 19:50,1.5,2.6
130,7/10/2009 19:55,1.3,2.2
131,7/10/2009 20:00,0.9,2
132,7/10/2009 20:05,1.1,1.7
133,7/10/2009 20:10,1.3,2.2
134,7/10/2009 20:15,1.1,1.7
135,7/10/2009 20:20,0.7,1.7
136,7/10/2009 20:25,0.6,1.5
137,7/10/2009 20:30,0.9,2
138,7/10/2009 20:35,0.7,2
139,7/10/2009 20:40,0.4,1.5
140,7/10/2009 20:45,0.4,1.7
141,7/10/2009 20:50,0.4,1.1
142,7/10/2009 20:55,0.6,1.5
143,7/10/2009 21:00,0.6,1.5
144,7/10/2009 21:05,0.6,1.5
145,7/10/2009 21:10,0.4,0.9
146,7/10/2009 21:15,0.6,1.5
147,7/10/2009 21:20,1.3,3
148,7/10/2009 21:25,0.6,1.3
149,7/10/2009 21:30,0.7,2.8
150,7/10/2009 21:35,1.5,4.1
151,7/10/2009 21:40,1.1,2.4
152,7/10/2009 21:45,1.3,2.8
153,7/10/2009 21:50,1.1,2.6
154,7/10/2009 21:55,1.3,3
155,7/10/2009 22:00,1.1,3
156,7/10/2009 22:05,1.3,3.2
157,7/10/2009 22:10,1.1,3.2
158,7/10/2009 22:15,0.7,1.9
159,7/10/2009 22:20,0.9,2.8
160,7/10/2009 22:25,0.9,2.6
161,7/10/2009 22:30,1.5,3
162,7/10/2009 22:35,1.1,2.4
163,7/10/2009 22:40,1.1,2.2
164,7/10/2009 22:45,1.5,3
165,7/10/2009 22:50,1.5,3.9
166,7/10/2009 22:55,1.3,4.1
167,7/10/2009 23:00,1.7,4.8
168,7/10/2009 23:05,2,5
169,7/10/2009 23:10,1.7,3.5
170,7/10/2009 23:15,2.2,4.8
171,7/10/2009 23:20,1.5,3.2
172,7/10/2009 23:25,1.3,3.3
173,7/10/2009 23:30,1.9,3.7
174,7/10/2009 23:35,2,3.9
175,7/10/2009 23:40,1.7,4.3
176,7/10/2009 23:45,1.9,3.7
177,7/10/2009 23:50,2,4.1
178,7/10/2009 23:55,2,3.7
179,7/11/2009 0:00,2,3.9
180,7/11/2009 0:05,2.4,4.6
181,7/11/2009 0:10,1.9,3.9
182,7/11/2009 0:15,1.3,3.3
183,7/11/2009 0:20,0.9,2.4
184,7/11/2009 0:25,2,4.8
185,7/11/2009 0:30,1.5,2.6
186,7/11/2009 0:35,1.1,2.6
187,7/11/2009 0:40,1.1,2.6
188,7/11/2009 0:45,1.1,2.6
189,7/11/2009 0:50,0.9,2.6
190,7/11/2009 0:55,0.9,2.4
191,7/11/2009 1:00,1.5,2.8
192,7/11/2009 1:05,1.3,2.6
193,7/11/2009 1:10,1.3,3
194,7/11/2009 1:15,1.1,3.2
195,7/11/2009 1:20,0.9,2.6
196,7/11/2009 1:25,1.1,2.8
197,7/11/2009 1:30,1.7,3.5
198,7/11/2009 1:35,1.7,3.2
199,7/11/2009 1:40,1.3,3.9
200,7/11/2009 1:45,1.3,3.2
201,7/11/2009 1:50,0.9,2.6
202,7/11/2009 1:55,1.1,3
203,7/11/2009 2:00,0.9,3
204,7/11/2009 2:05,1.1,3
205,7/11/2009 2:10,1.7,3.9
206,7/11/2009 2:15,2,3.9
207,7/11/2009 2:20,1.5,3
208,7/11/2009 2:25,1.7,3.3
209,7/11/2009 2:30,1.3,2.6
210,7/11/2009 2:35,2.6,4.3
211,7/11/2009 2:40,1.5,2.6
212,7/11/2009 2:45,1.3,3.3
213,7/11/2009 2:50,1.3,2.6
214,7/11/2009 2:55,1.1,3
215,7/11/2009 3:00,0.7,2.2
216,7/11/2009 3:05,1.3,3.7
217,7/11/2009 3:10,1.7,3.3
218,7/11/2009 3:15,1.9,4.1
219,7/11/2009 3:20,1.9,4.6
220,7/11/2009 3:25,2,4.8
221,7/11/2009 3:30,1.7,3.7
222,7/11/2009 3:35,1.1,2.8
223,7/11/2009 3:40,0.7,1.9
224,7/11/2009 3:45,1.1,2.4
225,7/11/2009 3:50,1.3,2.6
226,7/11/2009 3:55,0.7,2.2
227,7/11/2009 4:00,1.3,3.5
228,7/11/2009 4:05,1.5,3
229,7/11/2009 4:10,1.7,3.2
230,7/11/2009 4:15,2,3.7
231,7/11/2009 4:20,1.3,2.6
232,7/11/2009 4:25,1.3,2.6
233,7/11/2009 4:30,1.3,2.4
234,7/11/2009 4:35,0.9,2
235,7/11/2009 4:40,0.7,1.7
236,7/11/2009 4:45,0.7,2
237,7/11/2009 4:50,0.6,1.1
238,7/11/2009 4:55,1.3,2.6
239,7/11/2009 5:00,0.7,1.7
240,7/11/2009 5:05,0.9,1.9
241,7/11/2009 5:10,0.9,2.4
242,7/11/2009 5:15,1.7,2.8
243,7/11/2009 5:20,1.3,2.8
244,7/11/2009 5:25,0.9,2.6
245,7/11/2009 5:30,0.9,2
246,7/11/2009 5:35,0.9,2.2
247,7/11/2009 5:40,1.1,2.8
248,7/11/2009 5:45,1.1,2.2
249,7/11/2009 5:50,1.1,3
250,7/11/2009 5:55,1.1,3.7
251,7/11/2009 6:00,1.7,3.3
252,7/11/2009 6:05,1.5,3
253,7/11/2009 6:10,0.9,3
254,7/11/2009 6:15,0.9,3.2
255,7/11/2009 6:20,1.9,3.3
256,7/11/2009 6:25,1.3,2.4
257,7/11/2009 6:30,1.1,2
258,7/11/2009 6:35,0.9,1.7
259,7/11/2009 6:40,1.3,2.8
260,7/11/2009 6:45,1.5,2.6
261,7/11/2009 6:50,1.9,4.3
262,7/11/2009 6:55,1.7,3.3
263,7/11/2009 7:00,1.5,3.2
264,7/11/2009 7:05,1.5,3.2
265,7/11/2009 7:10,0.9,2.4
266,7/11/2009 7:15,1.3,2.6
267,7/11/2009 7:20,0.7,2.2
268,7/11/2009 7:25,0.9,3.2
269,7/11/2009 7:30,1.3,3
270,7/11/2009 7:35,1.7,3.7
271,7/11/2009 7:40,2,4.3
272,7/11/2009 7:45,2,4.5
273,7/11/2009 7:50,1.7,3.7
274,7/11/2009 7:55,1.5,2.8
275,7/11/2009 8:00,2,4.1
276,7/11/2009 8:05,1.7,3.9
277,7/11/2009 8:10,1.3,3
278,7/11/2009 8:15,1.1,3
279,7/11/2009 8:20,1.5,3.3
280,7/11/2009 8:25,1.1,2.6
281,7/11/2009 8:30,1.3,4.3
282,7/11/2009 8:35,1.3,2.8
283,7/11/2009 8:40,1.3,3
284,7/11/2009 8:45,1.9,3.5
285,7/11/2009 8:50,1.3,4.6
286,7/11/2009 8:55,1.5,3.2
287,7/11/2009 9:00,1.5,4.3
288,7/11/2009 9:05,0.9,3.2
289,7/11/2009 9:10,1.3,3.2
290,7/11/2009 9:15,1.1,3
291,7/11/2009 9:20,2.4,3.7
292,7/11/2009 9:25,2,3.9
293,7/11/2009 9:30,2.2,4.8
294,7/11/2009 9:35,2,4.5
295,7/11/2009 9:40,2.2,3.9
296,7/11/2009 9:45,2.6,5
297,7/11/2009 9:50,2,4.5
298,7/11/2009 9:55,3.5,5.9
299,7/11/2009 10:00,2.8,4.5
300,7/11/2009 10:05,1.9,5.2
301,7/11/2009 10:10,1.9,5.4
302,7/11/2009 10:15,2.2,4.8
303,7/11/2009 10:20,2.8,5.8
304,7/11/2009 10:25,2.2,5
305,7/11/2009 10:30,3.5,5.4
306,7/11/2009 10:35,3.3,5.9
307,7/11/2009 10:40,3.7,6.5
308,7/11/2009 10:45,3.5,6.5
309,7/11/2009 10:50,2.8,5.8
310,7/11/2009 10:55,2.6,4.8
311,7/11/2009 11:00,2.6,5
312,7/11/2009 11:05,2.4,5.6
313,7/11/2009 11:10,1.9,3.7
314,7/11/2009 11:15,2.4,5.4
315,7/11/2009 11:20,2.8,6.1
316,7/11/2009 11:25,3,5.9
317,7/11/2009 11:30,1.9,4.3
318,7/11/2009 11:35,2,5
319,7/11/2009 11:40,2.4,4.8
320,7/11/2009 11:45,3,5.6
321,7/11/2009 11:50,1.9,3.5
322,7/11/2009 11:55,1.7,4.3
323,7/11/2009 12:00,2.4,4.8
324,7/11/2009 12:05,2.2,5.9
325,7/11/2009 12:10,3,6.5
326,7/11/2009 12:15,2.4,4.8
327,7/11/2009 12:20,2.2,4.5
328,7/11/2009 12:25,2.4,4.8
329,7/11/2009 12:30,2.2,4.8
330,7/11/2009 12:35,1.7,4.3
331,7/11/2009 12:40,2.4,6.7
332,7/11/2009 12:45,3.2,5.9
333,7/11/2009 12:50,2.6,7.2
334,7/11/2009 12:55,3.7,8.7
335,7/11/2009 13:00,3.3,5.8
336,7/11/2009 13:05,2.4,5.9
337,7/11/2009 13:10,1.7,5.2
338,7/11/2009 13:15,2.2,5.6
339,7/11/2009 13:20,2.4,8.2
340,7/11/2009 13:25,2.2,5.9
341,7/11/2009 13:30,1.9,4.6
342,7/11/2009 13:35,1.9,4.8
343,7/11/2009 13:40,1.7,3.7
344,7/11/2009 13:45,2,5.9
345,7/11/2009 13:50,2,4.5
346,7/11/2009 13:55,3.5,6.7
347,7/11/2009 14:00,2.6,6.3
348,7/11/2009 14:05,2.2,4.6
349,7/11/2009 14:10,2.4,5.6
350,7/11/2009 14:15,2,5.8
351,7/11/2009 14:20,2.4,5.2
352,7/11/2009 14:25,2.8,5.2
353,7/11/2009 14:30,3.5,7.4
354,7/11/2009 14:35,2.4,6.1
355,7/11/2009 14:40,2,4.5
356,7/11/2009 14:45,2.6,4.8
357,7/11/2009 14:50,2,4.6
358,7/11/2009 14:55,3.2,6.7
359,7/11/2009 15:00,2.6,5
360,7/11/2009 15:05,2.6,5.6
361,7/11/2009 15:10,2.2,5
362,7/11/2009 15:15,2.2,5.2
363,7/11/2009 15:20,3.7,7.4
364,7/11/2009 15:25,3,7.6
365,7/11/2009 15:30,3.2,7.1
366,7/11/2009 15:35,2.6,5.9
367,7/11/2009 15:40,3.2,7.6
368,7/11/2009 15:45,3,5.9
369,7/11/2009 15:50,3.2,6.9
370,7/11/2009 15:55,2.4,5.4
371,7/11/2009 16:00,3,7.2
372,7/11/2009 16:05,2.2,5
373,7/11/2009 16:10,3.5,8.7
374,7/11/2009 16:15,2.4,5.2
375,7/11/2009 16:20,2.6,5.9
376,7/11/2009 16:25,2.4,6.1
377,7/11/2009 16:30,1.9,5.6
378,7/11/2009 16:35,2.2,5
379,7/11/2009 16:40,3,5.9
380,7/11/2009 16:45,2.6,7.1
381,7/11/2009 16:50,2.6,6.1
382,7/11/2009 16:55,3,7.6
383,7/11/2009 17:00,3.5,7.6
384,7/11/2009 17:05,3.5,7.6
385,7/11/2009 17:10,3,5.6
386,7/11/2009 17:15,3,5.4
387,7/11/2009 17:20,2.6,5.8
388,7/11/2009 17:25,2.8,6.7
389,7/11/2009 17:30,2.8,4.8
390,7/11/2009 17:35,2,4.8
391,7/11/2009 17:40,2,5.9
392,7/11/2009 17:45,3.3,8.3
393,7/11/2009 17:50,2.2,4.8
394,7/11/2009 17:55,1.9,5.8
395,7/11/2009 18:00,2.6,7.4
396,7/11/2009 18:05,1.9,4.8
397,7/11/2009 18:10,1.9,5.2
398,7/11/2009 18:15,2.8,6.1
399,7/11/2009 18:20,2.8,5.9
400,7/11/2009 18:25,2.8,6.1
401,7/11/2009 18:30,2.8,7.8
402,7/11/2009 18:35,2.8,5.8
403,7/11/2009 18:40,1.7,3.9
404,7/11/2009 18:45,2,5.8
405,7/11/2009 18:50,2.6,6.7
406,7/11/2009 18:55,2.4,5.6
407,7/11/2009 19:00,2.4,6.5
408,7/11/2009 19:05,2.6,6.1
409,7/11/2009 19:10,3.5,7.1
410,7/11/2009 19:15,3.5,8.3
411,7/11/2009 19:20,3.3,6.9
412,7/11/2009 19:25,3,6.7
413,7/11/2009 19:30,3.3,7.4
414,7/11/2009 19:35,3.2,6.5
415,7/11/2009 19:40,2.6,5.4
416,7/11/2009 19:45,2.4,5
417,7/11/2009 19:50,2.2,4.5
418,7/11/2009 19:55,2,5.2
419,7/11/2009 20:00,2.4,5.6
420,7/11/2009 20:05,2,6.5
421,7/11/2009 20:10,1.9,4.8
422,7/11/2009 20:15,2.2,5
423,7/11/2009 20:20,2,4.3
424,7/11/2009 20:25,1.5,3.2
425,7/11/2009 20:30,2.2,4.8
426,7/11/2009 20:35,2.6,6.1
427,7/11/2009 20:40,1.9,4.5
428,7/11/2009 20:45,3,5.6
429,7/11/2009 20:50,2.8,5.6
430,7/11/2009 20:55,2.4,5.4
431,7/11/2009 21:00,1.9,4.6
432,7/11/2009 21:05,1.9,4.5
433,7/11/2009 21:10,1.7,3.9
434,7/11/2009 21:15,1.1,2.8
435,7/11/2009 21:20,1.5,4.6
436,7/11/2009 21:25,2.4,5.6
437,7/11/2009 21:30,1.5,3.7
438,7/11/2009 21:35,1.9,3.9
439,7/11/2009 21:40,1.7,3.9
440,7/11/2009 21:45,2.4,4.6
441,7/11/2009 21:50,1.7,3.7
442,7/11/2009 21:55,1.9,3.7
443,7/11/2009 22:00,2.2,4.5
444,7/11/2009 22:05,1.7,4.3
445,7/11/2009 22:10,2.6,5.4
446,7/11/2009 22:15,2.6,5
447,7/11/2009 22:20,2,3.9
448,7/11/2009 22:25,1.9,4.1
449,7/11/2009 22:30,2.6,4.5
450,7/11/2009 22:35,1.5,5
451,7/11/2009 22:40,1.5,3.2
452,7/11/2009 22:45,1.5,3.5
453,7/11/2009 22:50,1.3,3.2
454,7/11/2009 22:55,2.8,5.8
455,7/11/2009 23:00,2,5.4
456,7/11/2009 23:05,1.1,3.5
457,7/11/2009 23:10,1.3,3.9
458,7/11/2009 23:15,2.6,5.4
459,7/11/2009 23:20,2,3.9
460,7/11/2009 23:25,1.1,3
461,7/11/2009 23:30,1.1,3.9
462,7/11/2009 23:35,1.1,2.6
463,7/11/2009 23:40,1.5,4.6
464,7/11/2009 23:45,2.4,5.9
465,7/11/2009 23:50,2.2,5.8
466,7/11/2009 23:55,2.2,4.8
467,7/12/2009 0:00,2.2,5.9
468,7/12/2009 0:05,1.9,4.6
469,7/12/2009 0:10,1.7,3.7
470,7/12/2009 0:15,1.7,3.9
471,7/12/2009 0:20,0.9,3.2
472,7/12/2009 0:25,2.4,5
473,7/12/2009 0:30,1.7,3.7
474,7/12/2009 0:35,2,4.8
475,7/12/2009 0:40,2.2,6.9
476,7/12/2009 0:45,2,6.3
477,7/12/2009 0:50,3.2,7.1
478,7/12/2009 0:55,2.6,5.8
479,7/12/2009 1:00,1.1,3.2
480,7/12/2009 1:05,2,4.6
481,7/12/2009 1:10,2,4.5
482,7/12/2009 1:15,1.5,3.5
483,7/12/2009 1:20,1.5,3.2
484,7/12/2009 1:25,1.3,3.2
485,7/12/2009 1:30,1.5,3.7
486,7/12/2009 1:35,1.3,3
487,7/12/2009 1:40,1.9,3.9
488,7/12/2009 1:45,1.9,3.5
489,7/12/2009 1:50,1.5,3
490,7/12/2009 1:55,1.5,4.1
491,7/12/2009 2:00,1.7,3.7
492,7/12/2009 2:05,1.7,6.7
493,7/12/2009 2:10,1.3,2.8
494,7/12/2009 2:15,2,4.3
495,7/12/2009 2:20,2.6,5
496,7/12/2009 2:25,2,4.1
497,7/12/2009 2:30,2.2,4.8
498,7/12/2009 2:35,2.2,5.8
499,7/12/2009 2:40,2.4,5.2
500,7/12/2009 2:45,1.5,3.3
501,7/12/2009 2:50,1.5,3.3
502,7/12/2009 2:55,1.7,4.1
503,7/12/2009 3:00,2.2,4.5
504,7/12/2009 3:05,1.7,3.9
505,7/12/2009 3:10,2.2,4.1
506,7/12/2009 3:15,1.1,3.7
507,7/12/2009 3:20,1.7,4.3
508,7/12/2009 3:25,1.9,4.3
509,7/12/2009 3:30,2,4.1
510,7/12/2009 3:35,1.9,4.5
511,7/12/2009 3:40,2.2,5.2
512,7/12/2009 3:45,2.2,5.4
513,7/12/2009 3:50,1.7,4.3
514,7/12/2009 3:55,2.8,5
515,7/12/2009 4:00,2.4,5.9
516,7/12/2009 4:05,2.2,5.4
517,7/12/2009 4:10,2,4.6
518,7/12/2009 4:15,2.4,4.8
519,7/12/2009 4:20,1.3,3.3
520,7/12/2009 4:25,1.7,3.7
521,7/12/2009 4:30,1.9,4.5
522,7/12/2009 4:35,1.5,3.2
523,7/12/2009 4:40,1.5,4.1
524,7/12/2009 4:45,2.2,4.3
525,7/12/2009 4:50,1.5,3.7
526,7/12/2009 4:55,1.3,4.3
527,7/12/2009 5:00,1.3,3.2
528,7/12/2009 5:05,1.7,3.5
529,7/12/2009 5:10,1.7,4.5
530,7/12/2009 5:15,2,4.3
531,7/12/2009 5:20,1.7,4.8
532,7/12/2009 5:25,1.9,5
533,7/12/2009 5:30,1.9,4.3
534,7/12/2009 5:35,2.8,5.2
535,7/12/2009 5:40,2.2,4.6
536,7/12/2009 5:45,1.7,4.5
537,7/12/2009 5:50,2.2,4.8
538,7/12/2009 5:55,3.3,7.1
539,7/12/2009 6:00,3,5.4
540,7/12/2009 6:05,2.8,5.8
541,7/12/2009 6:10,2.8,5.9
542,7/12/2009 6:15,2.2,7.6
543,7/12/2009 6:20,2.2,4.3
544,7/12/2009 6:25,2,4.5
545,7/12/2009 6:30,2.6,4.8
546,7/12/2009 6:35,2.6,4.5
547,7/12/2009 6:40,2.4,5
548,7/12/2009 6:45,3,5.9
549,7/12/2009 6:50,2.8,5.8
550,7/12/2009 6:55,2.2,5
551,7/12/2009 7:00,2.4,5.2
552,7/12/2009 7:05,2.2,4.6
553,7/12/2009 7:10,2,4.3
554,7/12/2009 7:15,2.2,4.5
555,7/12/2009 7:20,3.3,5.8
556,7/12/2009 7:25,2,4.1
557,7/12/2009 7:30,2.4,5.2
558,7/12/2009 7:35,1.5,5
559,7/12/2009 7:40,2.6,5.2
560,7/12/2009 7:45,2,4.8
561,7/12/2009 7:50,1.9,4.1
562,7/12/2009 7:55,1.3,3
563,7/12/2009 8:00,1.7,3.3
564,7/12/2009 8:05,1.9,3.9
565,7/12/2009 8:10,1.1,4.3
566,7/12/2009 8:15,3,5.2
567,7/12/2009 8:20,2.6,4.5
568,7/12/2009 8:25,2.6,5.6
569,7/12/2009 8:30,1.3,4.5
570,7/12/2009 8:35,0.7,2.4
571,7/12/2009 8:40,1.5,4.6
572,7/12/2009 8:45,1.9,4.6
573,7/12/2009 8:50,2.2,4.6
574,7/12/2009 8:55,1.3,4.5
575,7/12/2009 9:00,1.5,3.3
576,7/12/2009 9:05,1.5,3.5
577,7/12/2009 9:10,2.2,4.6
578,7/12/2009 9:15,2.2,6.1
579,7/12/2009 9:20,2.4,6.5
580,7/12/2009 9:25,1.9,4.3
581,7/12/2009 9:30,2.4,5.6
582,7/12/2009 9:35,2.2,4.3
583,7/12/2009 9:40,2.2,4.1
584,7/12/2009 9:45,1.1,2.4
585,7/12/2009 9:50,1.9,5.9
586,7/12/2009 9:55,1.9,3.9
587,7/12/2009 10:00,2,4.5
588,7/12/2009 10:05,2,4.6
589,7/12/2009 10:10,2.2,5
590,7/12/2009 10:15,1.9,5.2
591,7/12/2009 10:20,2.6,4.5
592,7/12/2009 10:25,2.6,4.6
593,7/12/2009 10:30,1.9,5
594,7/12/2009 10:35,1.7,3.9
595,7/12/2009 10:40,3.2,6.5
596,7/12/2009 10:45,2,4.6
597,7/12/2009 10:50,2.4,5.2
598,7/12/2009 10:55,1.5,4.3
599,7/12/2009 11:00,2.6,5.4
600,7/12/2009 11:05,2.2,6.3
601,7/12/2009 11:10,1.9,5.4
602,7/12/2009 11:15,4.3,7.4
603,7/12/2009 11:20,2.2,6.1
604,7/12/2009 11:25,3,6.3
605,7/12/2009 11:30,2.6,6.5
606,7/12/2009 11:35,3.7,7.2
607,7/12/2009 11:40,3.3,6.9
608,7/12/2009 11:45,1.9,6.3
609,7/12/2009 11:50,3.3,6.5
610,7/12/2009 11:55,3,5.8
611,7/12/2009 12:00,2,6.7
612,7/12/2009 12:05,2.8,6.1
613,7/12/2009 12:10,2,6.3
614,7/12/2009 12:15,1.9,4.8
615,7/12/2009 12:20,2.2,5.6
616,7/12/2009 12:25,2.8,5.4
617,7/12/2009 12:30,2.6,6.1
618,7/12/2009 12:35,3.2,6.7
619,7/12/2009 12:40,3,6.7
620,7/12/2009 12:45,3.3,7.1
621,7/12/2009 12:50,3.2,6.9
622,7/12/2009 12:55,2.8,6.5
623,7/12/2009 13:00,3,7.1
624,7/12/2009 13:05,2.6,6.3
625,7/12/2009 13:10,3.2,6.5
626,7/12/2009 13:15,3,6.9
627,7/12/2009 13:20,3.3,6.5
628,7/12/2009 13:25,3,6.7
629,7/12/2009 13:30,4.3,8.3
630,7/12/2009 13:35,3,6.1
631,7/12/2009 13:40,3.5,8.7
632,7/12/2009 13:45,3.2,7.6
633,7/12/2009 13:50,3.3,7.6
634,7/12/2009 13:55,2.4,4.6
635,7/12/2009 14:00,3.2,6.3
636,7/12/2009 14:05,4.6,7.2
637,7/12/2009 14:10,3.7,7.4
638,7/12/2009 14:15,3.7,6.9
639,7/12/2009 14:20,2.6,5
640,7/12/2009 14:25,4.1,7.2
641,7/12/2009 14:30,3.2,7.8
642,7/12/2009 14:35,4.8,8
643,7/12/2009 14:40,4.6,7.6
644,7/12/2009 14:45,5.6,10.9
645,7/12/2009 14:50,5.6,9.1
646,7/12/2009 14:55,3.9,7.4
647,7/12/2009 15:00,3.9,6.3
648,7/12/2009 15:05,3.9,6.7
649,7/12/2009 15:10,3.9,7.2
650,7/12/2009 15:15,2.6,5.9
651,7/12/2009 15:20,3.9,9.8
652,7/12/2009 15:25,3.7,9.5
653,7/12/2009 15:30,4.8,8.5
654,7/12/2009 15:35,4.5,9.3
655,7/12/2009 15:40,3.3,5.9
656,7/12/2009 15:45,2.8,7.6
657,7/12/2009 15:50,3,7.4
658,7/12/2009 15:55,4.1,7.6
659,7/12/2009 16:00,3,7.2
660,7/12/2009 16:05,2.6,5
661,7/12/2009 16:10,3.9,7.4
662,7/12/2009 16:15,5.4,9.5
663,7/12/2009 16:20,2.6,8.2
664,7/12/2009 16:25,3.7,6.9
665,7/12/2009 16:30,4.3,8.2
666,7/12/2009 16:35,3.5,6.9
667,7/12/2009 16:40,2.2,3.9
668,7/12/2009 16:45,2.4,5.2
669,7/12/2009 16:50,2.8,6.1
670,7/12/2009 16:55,2.6,5.4
671,7/12/2009 17:00,2.6,5.8
672,7/12/2009 17:05,2.2,5
673,7/12/2009 17:10,2.4,6.1
674,7/12/2009 17:15,2.2,4.3
675,7/12/2009 17:20,2,5.4
676,7/12/2009 17:25,1.5,3.5
677,7/12/2009 17:30,2,4.1
678,7/12/2009 17:35,2.4,4.8
679,7/12/2009 17:40,1.7,4.6
680,7/12/2009 17:45,2.2,5.2
681,7/12/2009 17:50,1.9,4.6
682,7/12/2009 17:55,2.8,5.8
683,7/12/2009 18:00,2.2,4.6
684,7/12/2009 18:05,2.2,5
685,7/12/2009 18:10,1.3,3.2
686,7/12/2009 18:15,1.9,3.9
687,7/12/2009 18:20,2.2,4.8
688,7/12/2009 18:25,2.6,4.6
689,7/12/2009 18:30,3.7,6.5
690,7/12/2009 18:35,3.7,6.1
691,7/12/2009 18:40,3,5.8
692,7/12/2009 18:45,3.7,6.3
693,7/12/2009 18:50,2.4,5.2
694,7/12/2009 18:55,2.6,6.3
695,7/12/2009 19:00,2.6,5.4
696,7/12/2009 19:05,2.4,4.8
697,7/12/2009 19:10,2.4,4.5
698,7/12/2009 19:15,1.9,3.5
699,7/12/2009 19:20,2.6,4.5
700,7/12/2009 19:25,2,4.1
701,7/12/2009 19:30,2.2,4.3
702,7/12/2009 19:35,2.4,4.6
703,7/12/2009 19:40,1.9,4.3
704,7/12/2009 19:45,2,4.3
705,7/12/2009 19:50,2,3.7
706,7/12/2009 19:55,3.7,6.7
707,7/12/2009 20:00,3.3,6.1
708,7/12/2009 20:05,2.8,5.6
709,7/12/2009 20:10,2.6,4.8
710,7/12/2009 20:15,3.3,5.9
711,7/12/2009 20:20,3.3,6.1
712,7/12/2009 20:25,3.3,5.8
713,7/12/2009 20:30,3.2,5.2
714,7/12/2009 20:35,3,5.4
715,7/12/2009 20:40,2.8,5.4
716,7/12/2009 20:45,3.5,5.8
717,7/12/2009 20:50,3.7,5.9
718,7/12/2009 20:55,3.5,5.8
719,7/12/2009 21:00,3.3,6.3
720,7/12/2009 21:05,3.3,5.9
721,7/12/2009 21:10,3.2,5
722,7/12/2009 21:15,2.8,5.4
723,7/12/2009 21:20,3.3,5.8
724,7/12/2009 21:25,3.3,6.5
725,7/12/2009 21:30,3,5
726,7/12/2009 21:35,4.1,7.8
727,7/12/2009 21:40,4.3,7.2
728,7/12/2009 21:45,3.2,6.1
729,7/12/2009 21:50,3.3,5.4
730,7/12/2009 21:55,3.5,6.9
731,7/12/2009 22:00,3.5,5.8
732,7/12/2009 22:05,3,5.8
733,7/12/2009 22:10,2.4,5
734,7/12/2009 22:15,2.6,5.2
735,7/12/2009 22:20,3,5.2
736,7/12/2009 22:25,1.9,4.1
737,7/12/2009 22:30,2,4.5
738,7/12/2009 22:35,2.2,4.6
739,7/12/2009 22:40,1.7,3.5
740,7/12/2009 22:45,1.9,3.5
741,7/12/2009 22:50,2.4,4.6
742,7/12/2009 22:55,1.7,3.2
743,7/12/2009 23:00,1.7,3.7
744,7/12/2009 23:05,1.7,4.3
745,7/12/2009 23:10,2.4,4.6
746,7/12/2009 23:15,2.8,6.3
747,7/12/2009 23:20,2,4.1
748,7/12/2009 23:25,2.4,4.1
749,7/12/2009 23:30,2.8,4.5
750,7/12/2009 23:35,3,5.2
751,7/12/2009 23:40,3.2,5.2
752,7/12/2009 23:45,2.6,3.7
753,7/12/2009 23:50,2.6,4.3
754,7/12/2009 23:55,3.2,5.2
755,7/13/2009 0:00,2.2,4.6
756,7/13/2009 0:05,2.2,3.9
757,7/13/2009 0:10,2.2,3.9
758,7/13/2009 0:15,2.2,3.5
759,7/13/2009 0:20,2.2,3.7
760,7/13/2009 0:25,1.9,3.3
761,7/13/2009 0:30,2.2,3.3
762,7/13/2009 0:35,2.2,3.3
763,7/13/2009 0:40,2.2,3.7
764,7/13/2009 0:45,2.8,4.6
765,7/13/2009 0:50,2.8,4.5
766,7/13/2009 0:55,2.8,4.1
767,7/13/2009 1:00,3.3,5
768,7/13/2009 1:05,3.7,6.5
769,7/13/2009 1:10,3.7,5.8
770,7/13/2009 1:15,3.3,5.2
771,7/13/2009 1:20,3,4.8
772,7/13/2009 1:25,3.2,5.4
773,7/13/2009 1:30,3.2,4.6
774,7/13/2009 1:35,3.2,4.6
775,7/13/2009 1:40,2.8,4.3
776,7/13/2009 1:45,2.6,4.8
777,7/13/2009 1:50,2.4,3.9
778,7/13/2009 1:55,2.2,4.5
779,7/13/2009 2:00,1.5,2.8
780,7/13/2009 2:05,1.9,3.9
781,7/13/2009 2:10,2.2,4.1
782,7/13/2009 2:15,2.4,3.7
783,7/13/2009 2:20,2.2,3.9
784,7/13/2009 2:25,3.3,5.8
785,7/13/2009 2:30,2.8,4.3
786,7/13/2009 2:35,2.2,3.5
787,7/13/2009 2:40,2.8,4.6
788,7/13/2009 2:45,3.2,4.8
789,7/13/2009 2:50,2,4.3
790,7/13/2009 2:55,2.6,3.9
791,7/13/2009 3:00,3,4.3
792,7/13/2009 3:05,3,5.2
793,7/13/2009 3:10,3.2,4.6
794,7/13/2009 3:15,2.8,5.2
795,7/13/2009 3:20,3.2,5.2
796,7/13/2009 3:25,3.2,5.2
797,7/13/2009 3:30,3,4.5
798,7/13/2009 3:35,3.3,5.2
799,7/13/2009 3:40,2.8,4.8
800,7/13/2009 3:45,3.3,5.6
801,7/13/2009 3:50,3,4.5
802,7/13/2009 3:55,3,3.9
803,7/13/2009 4:00,3,4.1
804,7/13/2009 4:05,3,4.6
805,7/13/2009 4:10,3.2,4.8
806,7/13/2009 4:15,2.8,4.6
807,7/13/2009 4:20,3,5.8
808,7/13/2009 4:25,3.3,5.2
809,7/13/2009 4:30,3.2,5.2
810,7/13/2009 4:35,3,4.8
811,7/13/2009 4:40,3.2,5.4
812,7/13/2009 4:45,2.4,4.1
813,7/13/2009 4:50,2,4.1
814,7/13/2009 4:55,2,4.1
815,7/13/2009 5:00,2.4,4.1
816,7/13/2009 5:05,3.2,4.5
817,7/13/2009 5:10,2.8,4.5
818,7/13/2009 5:15,2.6,4.3
819,7/13/2009 5:20,2.4,3.9
820,7/13/2009 5:25,2.8,4.1
821,7/13/2009 5:30,2.8,4.1
822,7/13/2009 5:35,2.8,4.6
823,7/13/2009 5:40,3.2,4.6
824,7/13/2009 5:45,3,5
825,7/13/2009 5:50,2.4,5.2
826,7/13/2009 5:55,2.8,4.5
827,7/13/2009 6:00,2.4,4.1
828,7/13/2009 6:05,2.2,4.1
829,7/13/2009 6:10,2.4,3.7
830,7/13/2009 6:15,1.9,3.2
831,7/13/2009 6:20,2.4,3.9
832,7/13/2009 6:25,1.7,3.3
833,7/13/2009 6:30,2.2,4.5
834,7/13/2009 6:35,2.8,4.8
835,7/13/2009 6:40,1.9,3.7
836,7/13/2009 6:45,3,5.2
837,7/13/2009 6:50,3.5,5.4
838,7/13/2009 6:55,3.3,5
839,7/13/2009 7:00,2.6,4.3
840,7/13/2009 7:05,2.6,4.6
841,7/13/2009 7:10,2.4,4.1
842,7/13/2009 7:15,2.2,4.1
843,7/13/2009 7:20,1.9,3.2
844,7/13/2009 7:25,2,5.2
845,7/13/2009 7:30,3.2,5.4
846,7/13/2009 7:35,2.8,5.8
847,7/13/2009 7:40,3,4.6
848,7/13/2009 7:45,2,4.5
849,7/13/2009 7:50,2.2,4.8
850,7/13/2009 7:55,3.5,6.9
851,7/13/2009 8:00,2.4,6.5
852,7/13/2009 8:05,3,5.6
853,7/13/2009 8:10,2.6,4.8
854,7/13/2009 8:15,1.5,3.2
855,7/13/2009 8:20,1.9,4.1